{"data":{"norad_id":56449,"epoch":"2026-05-25T01:54:18.501984Z","epoch_age_seconds":74947,"freshness":"FRESH","line1":"1 56449U 23064B   26145.07938081  .00000788  00000+0  73787-4 0  9995","line2":"2 56449  69.9981 312.0439 0003055 267.6503  92.4306 14.98332350166685","mean_motion":14.9833235,"eccentricity":0.0003055,"inclination_deg":69.9981,"raan_deg":312.0439,"arg_perigee_deg":267.6503,"mean_anomaly_deg":92.4306,"bstar":7.3787e-5,"rev_number":16668,"period_min":96.106848390479,"perigee_km":569.9253420647,"apogee_km":574.17190548083,"semimajor_km":6950.1856237728,"source":"CELESTRAK","updated_at":"2026-05-25T13:38:18.065860Z"}}